Location: Hohe Wand Kleine Kanzel
(47.8330°N, 16.0170°E)
Time: 15:36:41
(UTC+02:00)

Vanguard 3 - Pass Details

Date: 04 August 2021
Orbit: 509 x 3260 km, 33.4° (Epoch: 27 September)

Event Time Altitude Azimuth Distance (km) Brightness Sun altitude
Rises 20:43:04 0° 260° (W) 5,916 12.4 -3.3°
Reaches altitude 10° 20:46:40 10° 255° (WSW) 5,215 12.0 -3.8°
Maximum altitude 21:02:14 49° 188° (S) 3,775 10.4 -6.0°
Drops below altitude 10° 21:20:32 10° 122° (ESE) 6,041 10.9 -8.5°
Enters shadow 21:20:59 - 122° (ESE) 6,120 10.9 -8.6°
